Content
SEND FEEDBACK

Daily
Averages
Monthly
Summary
United States of America

RAPID CITY, SOUTH DAKOTA


Home > North America > United States > South Dakota
Elevation: 3162 feet     Latitude: 44 03N     Longitude: 103 04W

WEATHER
 
SELECT A DAY
Number of Records: 200,329;   Date Range: 1/1/95 - 7/29/14
 
SHARE

PRINT THIS DATA

[ ← Previous Day ]
WEATHER ALMANAC - MAY 12, 2013
[ Next Day → ]
[ °C ]   °F
Weather ElementAverageHighLow
Temperature58.4 °F75 °F (4:52 pm)37 °F (3:52 am)
Dewpoint33.4 °F39 °F (6:52 pm)26.1 °F (5:52 am)
Humidity41.7 %68 % (2:52 am)24 % (4:52 pm)
Barometer30.06 in30.19 in (1:52 am)29.91 in (11:52 pm)
Wind Speed6.2 mph11.5 mph (12:52 pm)
Wind Gust18.4 mph (12:52 pm)
Weather ElementAverage
Visibility10 mi
Wind DirectionESE (122.2 °)

Weather ElementTotal
Precipitation---
Heating Degree Days9 (Base 65)
Growing Degree Days6 (Base 50)
Averaged from 23 records on May 12, 2013
WEATHER CONDITIONS BREAKOUT
WIND DIRECTION BREAKOUT
WEATHER BY HOUR - MAY 12, 2013
[ °C ]   °F
Local TimeTemperatureDewpointHumidityBarometerVisibilityWind DirectionWind SpeedGust SpeedPrecipitationEventsConditions
1:52 AM39.9 °F27.0 °F60 %30.19 in10.0 miCalmClear
2:52 AM37.9 °F28.0 °F68 %30.17 in10.0 miSSE (150°)4.6 mphClear
3:52 AM37.0 °F27.0 °F67 %30.16 in10.0 miESE (110°)3.5 mphClear
4:52 AM37.9 °F27.0 °F65 %30.14 in10.0 miESE (120°)3.5 mphClear
5:52 AM37.9 °F26.1 °F62 %30.15 in10.0 miSE (130°)3.5 mphClear
6:52 AM43.0 °F28.0 °F56 %30.14 in10.0 miCalmClear
7:52 AM46.9 °F28.0 °F48 %30.15 in10.0 miCalmClear
8:52 AM53.1 °F32.0 °F45 %30.14 in10.0 miSouth (180°)4.6 mphClear
9:52 AM60.1 °F33.1 °F36 %30.12 in10.0 miVariable4.6 mphClear
10:52 AM66.9 °F34.0 °F30 %30.10 in10.0 miESE (120°)8.1 mphClear
11:52 AM69.1 °F34.0 °F27 %30.09 in10.0 miSE (130°)9.2 mphClear
12:52 PM70.0 °F35.1 °F28 %30.07 in10.0 miSE (140°)11.5 mph18.4 mphClear
1:52 PM72.0 °F35.1 °F26 %30.05 in10.0 miSSE (150°)6.9 mph16.1 mphClear
2:52 PM73.0 °F35.1 °F25 %30.03 in10.0 miSE (140°)10.4 mphClear
3:52 PM73.0 °F36.0 °F26 %30.02 in10.0 miSE (140°)6.9 mphClear
4:52 PM75.0 °F36.0 °F24 %30.00 in10.0 miESE (120°)11.5 mphClear
5:52 PM72.0 °F37.0 °F28 %29.99 in10.0 miSE (130°)9.2 mphClear
6:52 PM70.0 °F39.0 °F32 %29.97 in10.0 miSSE (160°)9.2 mphClear
7:52 PM64.0 °F37.9 °F38 %29.96 in10.0 miSSE (160°)8.1 mphClear
8:52 PM60.1 °F37.9 °F44 %29.96 in10.0 miSouth (170°)5.8 mphClear
9:52 PM61.0 °F39.0 °F44 %29.95 in10.0 miSouth (180°)6.9 mphClear
10:52 PM60.1 °F39.0 °F46 %29.93 in10.0 miSouth (170°)8.1 mphClear
11:52 PM64.0 °F36.0 °F35 %29.91 in10.0 miSSW (210°)6.9 mphClear
Hourly data recorded from KRAP, located miles away from Rapid City, South Dakota







STORIES FROM OUR PARTNERS